owner,sensor,date,latitude,longitude,air_pressure(mBar),qcFlag 
TABS,ioos:station:TABS:X:1,2016-08-03T01:30:00Z,27.0660,-96.3383,1015.82,11111222 
TABS,ioos:station:TABS:X:1,2016-08-03T02:00:00Z,27.0660,-96.3383,1016.06,11111222 
TABS,ioos:station:TABS:X:1,2016-08-03T02:30:00Z,27.0660,-96.3383,1016.24,11111222 
TABS,ioos:station:TABS:X:1,2016-08-03T03:00:00Z,27.0660,-96.3383,1016.51,11111222 
TABS,ioos:station:TABS:X:1,2016-08-03T03:30:00Z,27.0660,-96.3383,1016.47,11111222 
TABS,ioos:station:TABS:X:1,2016-08-03T04:00:00Z,27.0660,-96.3383,1016.89,11111222 
TABS,ioos:station:TABS:X:1,2016-08-03T04:30:00Z,27.0660,-96.3383,1017.01,11111222 
TABS,ioos:station:TABS:X:1,2016-08-03T05:00:00Z,27.0660,-96.3383,1016.77,11111222 
TABS,ioos:station:TABS:X:1,2016-08-03T05:30:00Z,27.0660,-96.3383,1016.62,11111222 
TABS,ioos:station:TABS:X:1,2016-08-03T06:00:00Z,27.0660,-96.3383,1016.56,11111222 
TABS,ioos:station:TABS:X:1,2016-08-03T06:30:00Z,27.0660,-96.3383,1016.54,11111222 
TABS,ioos:station:TABS:X:1,2016-08-03T07:00:00Z,27.0660,-96.3383,1016.59,11111222 
TABS,ioos:station:TABS:X:1,2016-08-03T07:30:00Z,27.0660,-96.3383,1016.16,11111222 
TABS,ioos:station:TABS:X:1,2016-08-03T08:00:00Z,27.0660,-96.3383,1015.97,11111222 
TABS,ioos:station:TABS:X:1,2016-08-03T08:30:00Z,27.0660,-96.3383,1016.14,11111222 
TABS,ioos:station:TABS:X:1,2016-08-03T09:00:00Z,27.0660,-96.3383,1016.11,11111222 
TABS,ioos:station:TABS:X:1,2016-08-03T09:30:00Z,27.0660,-96.3383,1016.3,11111222 
TABS,ioos:station:TABS:X:1,2016-08-03T10:00:00Z,27.0660,-96.3383,1016.17,11111222 
TABS,ioos:station:TABS:X:1,2016-08-03T10:30:00Z,27.0660,-96.3383,1016.12,11111222 
TABS,ioos:station:TABS:X:1,2016-08-03T11:00:00Z,27.0660,-96.3383,1016.26,11111222 
TABS,ioos:station:TABS:X:1,2016-08-03T11:30:00Z,27.0660,-96.3383,1016.73,11111222 
TABS,ioos:station:TABS:X:1,2016-08-03T12:00:00Z,27.0660,-96.3383,1016.83,11111222 
TABS,ioos:station:TABS:X:1,2016-08-03T12:30:00Z,27.0660,-96.3383,1017.04,11111222 
TABS,ioos:station:TABS:X:1,2016-08-03T13:00:00Z,27.0660,-96.3383,1017.15,11111222 
TABS,ioos:station:TABS:X:1,2016-08-03T13:30:00Z,27.0660,-96.3383,1017.33,11111222 
TABS,ioos:station:TABS:X:1,2016-08-03T14:00:00Z,27.0660,-96.3383,1017.36,11111222 
TABS,ioos:station:TABS:X:1,2016-08-03T14:30:00Z,27.0660,-96.3383,1017.35,11111222 
TABS,ioos:station:TABS:X:1,2016-08-03T15:00:00Z,27.0660,-96.3383,1017.42,11111222 
TABS,ioos:station:TABS:X:1,2016-08-03T15:30:00Z,27.0660,-96.3383,1017.53,11111222 
TABS,ioos:station:TABS:X:1,2016-08-03T16:00:00Z,27.0660,-96.3383,1017.52,11111222 
TABS,ioos:station:TABS:X:1,2016-08-03T16:30:00Z,27.0660,-96.3383,1017.43,11111222 
TABS,ioos:station:TABS:X:1,2016-08-03T17:00:00Z,27.0660,-96.3383,1017.17,11111222 
TABS,ioos:station:TABS:X:1,2016-08-03T17:30:00Z,27.0660,-96.3383,1016.83,11111222 
TABS,ioos:station:TABS:X:1,2016-08-03T18:00:00Z,27.0660,-96.3383,1016.68,11111222 
TABS,ioos:station:TABS:X:1,2016-08-03T18:30:00Z,27.0660,-96.3383,1016.37,11111222 
TABS,ioos:station:TABS:X:1,2016-08-03T19:00:00Z,27.0660,-96.3383,1015.99,11111222 
TABS,ioos:station:TABS:X:1,2016-08-03T19:30:00Z,27.0660,-96.3383,1015.88,11111222 
TABS,ioos:station:TABS:X:1,2016-08-03T20:00:00Z,27.0660,-96.3383,1015.5,11111222 
TABS,ioos:station:TABS:X:1,2016-08-03T20:30:00Z,27.0660,-96.3383,1015.11,11111222 
TABS,ioos:station:TABS:X:1,2016-08-03T21:00:00Z,27.0660,-96.3383,1014.74,11111222 
TABS,ioos:station:TABS:X:1,2016-08-03T21:30:00Z,27.0660,-96.3383,1014.56,11111222 
TABS,ioos:station:TABS:X:1,2016-08-03T23:00:00Z,27.0660,-96.3383,1013.97,11111222 
TABS,ioos:station:TABS:X:1,2016-08-04T00:00:00Z,27.0660,-96.3383,1013.69,11111222 
TABS,ioos:station:TABS:X:1,2016-08-04T00:30:00Z,27.0660,-96.3383,1013.86,11111222 
TABS,ioos:station:TABS:X:1,2016-08-04T01:00:00Z,27.0660,-96.3383,1013.92,11111222 
TABS,ioos:station:TABS:X:1,2016-08-04T01:30:00Z,27.0660,-96.3383,1013.97,11111222 
TABS,ioos:station:TABS:X:1,2016-08-04T02:00:00Z,27.0660,-96.3383,1014.09,11111222 
TABS,ioos:station:TABS:X:1,2016-08-04T02:30:00Z,27.0660,-96.3383,1014.26,11111222 
TABS,ioos:station:TABS:X:1,2016-08-04T03:00:00Z,27.0660,-96.3383,1014.48,11111222 
TABS,ioos:station:TABS:X:1,2016-08-04T03:30:00Z,27.0660,-96.3383,1014.43,11111222 
TABS,ioos:station:TABS:X:1,2016-08-04T04:00:00Z,27.0660,-96.3383,1014.51,11111222 
TABS,ioos:station:TABS:X:1,2016-08-04T04:30:00Z,27.0660,-96.3383,1014.36,11111222 
TABS,ioos:station:TABS:X:1,2016-08-04T05:00:00Z,27.0660,-96.3383,1014.29,11111222 
TABS,ioos:station:TABS:X:1,2016-08-04T05:30:00Z,27.0660,-96.3383,1014.23,11111222 
TABS,ioos:station:TABS:X:1,2016-08-04T06:00:00Z,27.0660,-96.3383,1014.25,11111222 
TABS,ioos:station:TABS:X:1,2016-08-04T06:30:00Z,27.0660,-96.3383,1014.26,11111222 
TABS,ioos:station:TABS:X:1,2016-08-04T07:00:00Z,27.0660,-96.3383,1013.92,11111222 
TABS,ioos:station:TABS:X:1,2016-08-04T07:30:00Z,27.0660,-96.3383,1013.5,11111222 
TABS,ioos:station:TABS:X:1,2016-08-04T08:00:00Z,27.0660,-96.3383,1013.32,11111222 
TABS,ioos:station:TABS:X:1,2016-08-04T08:30:00Z,27.0660,-96.3383,1013.18,11111222 
TABS,ioos:station:TABS:X:1,2016-08-04T09:00:00Z,27.0660,-96.3383,1013.26,11111222 
TABS,ioos:station:TABS:X:1,2016-08-04T09:30:00Z,27.0660,-96.3383,1013.23,11111222 
TABS,ioos:station:TABS:X:1,2016-08-04T10:00:00Z,27.0660,-96.3383,1013.38,11111222 
TABS,ioos:station:TABS:X:1,2016-08-04T10:30:00Z,27.0660,-96.3383,1013.38,11111222 
TABS,ioos:station:TABS:X:1,2016-08-04T11:00:00Z,27.0660,-96.3383,1013.67,11111222 
TABS,ioos:station:TABS:X:1,2016-08-04T11:30:00Z,27.0660,-96.3383,1013.66,11111222 
TABS,ioos:station:TABS:X:1,2016-08-04T12:00:00Z,27.0660,-96.3383,1013.95,11111222 
TABS,ioos:station:TABS:X:1,2016-08-04T12:30:00Z,27.0660,-96.3383,1014.21,11111222 
TABS,ioos:station:TABS:X:1,2016-08-04T13:00:00Z,27.0660,-96.3383,1014.52,11111222 
TABS,ioos:station:TABS:X:1,2016-08-04T13:30:00Z,27.0660,-96.3383,1014.57,11111222 
TABS,ioos:station:TABS:X:1,2016-08-04T14:00:00Z,27.0660,-96.3383,1014.77,11111222 
TABS,ioos:station:TABS:X:1,2016-08-04T14:30:00Z,27.0660,-96.3383,1014.92,11111222 
TABS,ioos:station:TABS:X:1,2016-08-04T15:00:00Z,27.0660,-96.3383,1014.9,11111222 
TABS,ioos:station:TABS:X:1,2016-08-04T15:30:00Z,27.0660,-96.3383,1014.98,11111222 
TABS,ioos:station:TABS:X:1,2016-08-04T16:00:00Z,27.0660,-96.3383,1014.97,11111222 
TABS,ioos:station:TABS:X:1,2016-08-04T16:30:00Z,27.0660,-96.3383,1015.13,11111222 
TABS,ioos:station:TABS:X:1,2016-08-04T17:00:00Z,27.0660,-96.3383,1015.15,11111222 
TABS,ioos:station:TABS:X:1,2016-08-04T17:30:00Z,27.0660,-96.3383,1014.82,11111222 
TABS,ioos:station:TABS:X:1,2016-08-04T18:00:00Z,27.0660,-96.3383,1014.78,11111222 
TABS,ioos:station:TABS:X:1,2016-08-04T18:30:00Z,27.0660,-96.3383,1014.59,11111222 
TABS,ioos:station:TABS:X:1,2016-08-04T19:00:00Z,27.0660,-96.3383,1014.42,11111222 
TABS,ioos:station:TABS:X:1,2016-08-04T19:30:00Z,27.0660,-96.3383,1014.31,11111222 
TABS,ioos:station:TABS:X:1,2016-08-04T20:00:00Z,27.0660,-96.3383,1013.99,11111222 
TABS,ioos:station:TABS:X:1,2016-08-04T20:30:00Z,27.0660,-96.3383,1013.72,11111222 
TABS,ioos:station:TABS:X:1,2016-08-04T21:00:00Z,27.0660,-96.3383,1013.34,11111222 
TABS,ioos:station:TABS:X:1,2016-08-04T21:30:00Z,27.0660,-96.3383,1013.3,11111222 
TABS,ioos:station:TABS:X:1,2016-08-04T22:00:00Z,27.0660,-96.3383,1013.02,11111222 
TABS,ioos:station:TABS:X:1,2016-08-04T22:30:00Z,27.0660,-96.3383,1012.65,11111222 
TABS,ioos:station:TABS:X:1,2016-08-04T23:00:00Z,27.0660,-96.3383,1012.31,11111222 
TABS,ioos:station:TABS:X:1,2016-08-04T23:30:00Z,27.0660,-96.3383,1012.04,11111222 
TABS,ioos:station:TABS:X:1,2016-08-05T00:00:00Z,27.0660,-96.3383,1012.07,11111222 
TABS,ioos:station:TABS:X:1,2016-08-05T00:30:00Z,27.0660,-96.3383,1012.26,11111222 
TABS,ioos:station:TABS:X:1,2016-08-05T01:00:00Z,27.0660,-96.3383,1012.27,11111222 
TABS,ioos:station:TABS:X:1,2016-08-05T01:30:00Z,27.0660,-96.3383,1012.43,11111222 
TABS,ioos:station:TABS:X:1,2016-08-05T02:00:00Z,27.0660,-96.3383,1012.67,11111222 
TABS,ioos:station:TABS:X:1,2016-08-05T02:30:00Z,27.0660,-96.3383,1013.03,11111222 
TABS,ioos:station:TABS:X:1,2016-08-05T03:00:00Z,27.0660,-96.3383,1013.46,11111222 
TABS,ioos:station:TABS:X:1,2016-08-05T03:30:00Z,27.0660,-96.3383,1013.64,11111222 
TABS,ioos:station:TABS:X:1,2016-08-05T04:00:00Z,27.0660,-96.3383,1013.76,11111222 
TABS,ioos:station:TABS:X:1,2016-08-05T04:30:00Z,27.0660,-96.3383,1013.68,11111222 
TABS,ioos:station:TABS:X:1,2016-08-05T05:00:00Z,27.0660,-96.3383,1013.61,11111222 
TABS,ioos:station:TABS:X:1,2016-08-05T05:30:00Z,27.0660,-96.3383,1013.63,11111222 
TABS,ioos:station:TABS:X:1,2016-08-05T06:00:00Z,27.0660,-96.3383,1013.42,11111222 
TABS,ioos:station:TABS:X:1,2016-08-05T06:30:00Z,27.0660,-96.3383,1013.09,11111222 
TABS,ioos:station:TABS:X:1,2016-08-05T07:00:00Z,27.0660,-96.3383,1012.93,11111222 
TABS,ioos:station:TABS:X:1,2016-08-05T07:30:00Z,27.0660,-96.3383,1012.86,11111222 
TABS,ioos:station:TABS:X:1,2016-08-05T08:00:00Z,27.0660,-96.3383,1012.87,11111222 
TABS,ioos:station:TABS:X:1,2016-08-05T08:30:00Z,27.0660,-96.3383,1012.74,11111222 
TABS,ioos:station:TABS:X:1,2016-08-05T09:00:00Z,27.0660,-96.3383,1012.82,11111222 
TABS,ioos:station:TABS:X:1,2016-08-05T09:30:00Z,27.0660,-96.3383,1012.94,11111222 
TABS,ioos:station:TABS:X:1,2016-08-05T10:00:00Z,27.0660,-96.3383,1013.1,11111222 
TABS,ioos:station:TABS:X:1,2016-08-05T10:30:00Z,27.0660,-96.3383,1013.29,11111222 
TABS,ioos:station:TABS:X:1,2016-08-05T11:00:00Z,27.0660,-96.3383,1013.44,11111222 
TABS,ioos:station:TABS:X:1,2016-08-05T11:30:00Z,27.0660,-96.3383,1013.69,11111222 
TABS,ioos:station:TABS:X:1,2016-08-05T12:00:00Z,27.0660,-96.3383,1013.86,11111222 
TABS,ioos:station:TABS:X:1,2016-08-05T12:30:00Z,27.0660,-96.3383,1014.07,11111222 
TABS,ioos:station:TABS:X:1,2016-08-05T13:00:00Z,27.0660,-96.3383,1014.3,11111222 
TABS,ioos:station:TABS:X:1,2016-08-05T13:30:00Z,27.0660,-96.3383,1014.53,11111222 
TABS,ioos:station:TABS:X:1,2016-08-05T14:00:00Z,27.0660,-96.3383,1014.53,11111222 
TABS,ioos:station:TABS:X:1,2016-08-05T14:30:00Z,27.0660,-96.3383,1014.73,11111222 
TABS,ioos:station:TABS:X:1,2016-08-05T15:00:00Z,27.0660,-96.3383,1014.75,11111222 
TABS,ioos:station:TABS:X:1,2016-08-05T15:30:00Z,27.0660,-96.3383,1015.01,11111222 
TABS,ioos:station:TABS:X:1,2016-08-05T16:00:00Z,27.0660,-96.3383,1015.08,11111222 
TABS,ioos:station:TABS:X:1,2016-08-05T16:30:00Z,27.0660,-96.3383,1015.14,11111222 
TABS,ioos:station:TABS:X:1,2016-08-05T17:00:00Z,27.0660,-96.3383,1015.02,11111222 
TABS,ioos:station:TABS:X:1,2016-08-05T17:30:00Z,27.0660,-96.3383,1015.09,11111222 
TABS,ioos:station:TABS:X:1,2016-08-05T18:00:00Z,27.0660,-96.3383,1014.8,11111222 
TABS,ioos:station:TABS:X:1,2016-08-05T18:30:00Z,27.0660,-96.3383,1014.65,11111222 
TABS,ioos:station:TABS:X:1,2016-08-05T19:00:00Z,27.0660,-96.3383,1014.31,11111222 
TABS,ioos:station:TABS:X:1,2016-08-05T19:30:00Z,27.0660,-96.3383,1014.12,11111222 
TABS,ioos:station:TABS:X:1,2016-08-05T20:00:00Z,27.0660,-96.3383,1013.83,11111222 
TABS,ioos:station:TABS:X:1,2016-08-05T20:30:00Z,27.0660,-96.3383,1013.68,11111222 
TABS,ioos:station:TABS:X:1,2016-08-05T21:00:00Z,27.0660,-96.3383,1013.51,11111222 
TABS,ioos:station:TABS:X:1,2016-08-05T21:30:00Z,27.0660,-96.3383,1013.41,11111222 
TABS,ioos:station:TABS:X:1,2016-08-05T22:00:00Z,27.0660,-96.3383,1013.26,11111222 
TABS,ioos:station:TABS:X:1,2016-08-05T22:30:00Z,27.0660,-96.3383,1013.03,11111222 
TABS,ioos:station:TABS:X:1,2016-08-05T23:00:00Z,27.0660,-96.3383,1013.07,11111222 
TABS,ioos:station:TABS:X:1,2016-08-05T23:30:00Z,27.0660,-96.3383,1013.18,11111222 
TABS,ioos:station:TABS:X:1,2016-08-06T00:00:00Z,27.0660,-96.3383,1013.14,11111222 
TABS,ioos:station:TABS:X:1,2016-08-06T00:30:00Z,27.0660,-96.3383,1013.19,11111222 
TABS,ioos:station:TABS:X:1,2016-08-06T01:00:00Z,27.0660,-96.3383,1013.12,11111222 
TABS,ioos:station:TABS:X:1,2016-08-06T01:30:00Z,27.0660,-96.3383,1013.54,11111222 
TABS,ioos:station:TABS:X:1,2016-08-06T02:00:00Z,27.0660,-96.3383,1013.7,11111222 
TABS,ioos:station:TABS:X:1,2016-08-06T02:30:00Z,27.0660,-96.3383,1013.81,11111222 
TABS,ioos:station:TABS:X:1,2016-08-06T03:00:00Z,27.0660,-96.3383,1014.24,11111222 
TABS,ioos:station:TABS:X:1,2016-08-06T03:30:00Z,27.0660,-96.3383,1014.45,11111222 
TABS,ioos:station:TABS:X:1,2016-08-06T04:00:00Z,27.0660,-96.3383,1014.59,11111222 
TABS,ioos:station:TABS:X:1,2016-08-06T04:30:00Z,27.0660,-96.3383,1014.52,11111222 
TABS,ioos:station:TABS:X:1,2016-08-06T05:00:00Z,27.0660,-96.3383,1014.66,11111222 
TABS,ioos:station:TABS:X:1,2016-08-06T05:30:00Z,27.0660,-96.3383,1014.36,11111222 
TABS,ioos:station:TABS:X:1,2016-08-06T06:00:00Z,27.0660,-96.3383,1014.15,11111222 
TABS,ioos:station:TABS:X:1,2016-08-06T06:30:00Z,27.0660,-96.3383,1014.09,11111222 
TABS,ioos:station:TABS:X:1,2016-08-06T07:00:00Z,27.0660,-96.3383,1014.16,11111222 
TABS,ioos:station:TABS:X:1,2016-08-06T07:30:00Z,27.0660,-96.3383,1014.0,11111222 
TABS,ioos:station:TABS:X:1,2016-08-06T08:00:00Z,27.0660,-96.3383,1013.93,11111222 
TABS,ioos:station:TABS:X:1,2016-08-06T08:30:00Z,27.0660,-96.3383,1013.66,11111222 
TABS,ioos:station:TABS:X:1,2016-08-06T09:00:00Z,27.0660,-96.3383,1013.47,11111222 
TABS,ioos:station:TABS:X:1,2016-08-06T09:30:00Z,27.0660,-96.3383,1013.41,11111222 
TABS,ioos:station:TABS:X:1,2016-08-06T10:00:00Z,27.0660,-96.3383,1013.74,11111222 
TABS,ioos:station:TABS:X:1,2016-08-06T10:30:00Z,27.0660,-96.3383,1013.99,11111222 
TABS,ioos:station:TABS:X:1,2016-08-06T11:00:00Z,27.0660,-96.3383,1014.2,11111222 
TABS,ioos:station:TABS:X:1,2016-08-06T11:30:00Z,27.0660,-96.3383,1014.37,11111222 
TABS,ioos:station:TABS:X:1,2016-08-06T12:00:00Z,27.0660,-96.3383,1014.52,11111222 
TABS,ioos:station:TABS:X:1,2016-08-06T12:30:00Z,27.0660,-96.3383,1014.77,11111222 
TABS,ioos:station:TABS:X:1,2016-08-06T13:00:00Z,27.0660,-96.3383,1014.98,11111222 
TABS,ioos:station:TABS:X:1,2016-08-06T13:30:00Z,27.0660,-96.3383,1014.93,11111222 
TABS,ioos:station:TABS:X:1,2016-08-06T14:00:00Z,27.0660,-96.3383,1014.69,11111222 
TABS,ioos:station:TABS:X:1,2016-08-06T14:30:00Z,27.0660,-96.3383,1014.78,11111222 
TABS,ioos:station:TABS:X:1,2016-08-06T15:00:00Z,27.0660,-96.3383,1014.86,11111222 
TABS,ioos:station:TABS:X:1,2016-08-06T15:30:00Z,27.0660,-96.3383,1015.17,11111222 
TABS,ioos:station:TABS:X:1,2016-08-06T16:00:00Z,27.0660,-96.3383,1015.43,11111222 
TABS,ioos:station:TABS:X:1,2016-08-06T16:30:00Z,27.0660,-96.3383,1015.54,11111222 
TABS,ioos:station:TABS:X:1,2016-08-06T17:00:00Z,27.0660,-96.3383,1015.52,11111222 
TABS,ioos:station:TABS:X:1,2016-08-06T17:30:00Z,27.0660,-96.3383,1015.31,11111222 
TABS,ioos:station:TABS:X:1,2016-08-06T18:00:00Z,27.0660,-96.3383,1015.09,11111222 
TABS,ioos:station:TABS:X:1,2016-08-06T18:30:00Z,27.0660,-96.3383,1014.64,11111222 
TABS,ioos:station:TABS:X:1,2016-08-06T19:00:00Z,27.0660,-96.3383,1014.43,11111222 
TABS,ioos:station:TABS:X:1,2016-08-06T19:30:00Z,27.0660,-96.3383,1014.15,11111222 
TABS,ioos:station:TABS:X:1,2016-08-06T20:00:00Z,27.0660,-96.3383,1013.69,11111222 
TABS,ioos:station:TABS:X:1,2016-08-06T20:30:00Z,27.0660,-96.3383,1013.49,11111222 
TABS,ioos:station:TABS:X:1,2016-08-06T21:00:00Z,27.0660,-96.3383,1013.53,11111222 
TABS,ioos:station:TABS:X:1,2016-08-06T21:30:00Z,27.0660,-96.3383,1013.39,11111222 
TABS,ioos:station:TABS:X:1,2016-08-06T22:00:00Z,27.0660,-96.3383,1013.26,11111222 
TABS,ioos:station:TABS:X:1,2016-08-06T22:30:00Z,27.0660,-96.3383,1013.07,11111222 
TABS,ioos:station:TABS:X:1,2016-08-06T23:00:00Z,27.0660,-96.3383,1013.01,11111222 
TABS,ioos:station:TABS:X:1,2016-08-06T23:30:00Z,27.0660,-96.3383,1012.93,11111222 
TABS,ioos:station:TABS:X:1,2016-08-07T00:00:00Z,27.0660,-96.3383,1013.02,11111222 
TABS,ioos:station:TABS:X:1,2016-08-07T00:30:00Z,27.0660,-96.3383,1013.28,11111222 
TABS,ioos:station:TABS:X:1,2016-08-07T01:00:00Z,27.0660,-96.3383,1013.35,11111222 
TABS,ioos:station:TABS:X:1,2016-08-07T01:30:00Z,27.0660,-96.3383,1013.22,11111222 
TABS,ioos:station:TABS:X:1,2016-08-07T02:00:00Z,27.0660,-96.3383,1013.48,11111222 
TABS,ioos:station:TABS:X:1,2016-08-07T02:30:00Z,27.0660,-96.3383,1013.64,11111222 
TABS,ioos:station:TABS:X:1,2016-08-07T03:00:00Z,27.0660,-96.3383,1014.01,11111222 
TABS,ioos:station:TABS:X:1,2016-08-07T03:30:00Z,27.0660,-96.3383,1014.11,11111222 
TABS,ioos:station:TABS:X:1,2016-08-07T04:00:00Z,27.0660,-96.3383,1014.25,11111222 
TABS,ioos:station:TABS:X:1,2016-08-07T04:30:00Z,27.0660,-96.3383,1014.44,11111222 
TABS,ioos:station:TABS:X:1,2016-08-07T05:00:00Z,27.0660,-96.3383,1014.52,11111222 
TABS,ioos:station:TABS:X:1,2016-08-07T05:30:00Z,27.0660,-96.3383,1014.55,11111222 
TABS,ioos:station:TABS:X:1,2016-08-07T06:00:00Z,27.0660,-96.3383,1014.46,11111222 
TABS,ioos:station:TABS:X:1,2016-08-07T06:30:00Z,27.0660,-96.3383,1014.24,11111222 
TABS,ioos:station:TABS:X:1,2016-08-07T07:00:00Z,27.0660,-96.3383,1013.92,11111222 
TABS,ioos:station:TABS:X:1,2016-08-07T07:30:00Z,27.0660,-96.3383,1013.6,11111222 
TABS,ioos:station:TABS:X:1,2016-08-07T08:00:00Z,27.0660,-96.3383,1013.0,11111222 
TABS,ioos:station:TABS:X:1,2016-08-07T08:30:00Z,27.0660,-96.3383,1012.99,11111222 
TABS,ioos:station:TABS:X:1,2016-08-07T09:00:00Z,27.0660,-96.3383,1013.01,11111222 
TABS,ioos:station:TABS:X:1,2016-08-07T09:30:00Z,27.0660,-96.3383,1013.2,11111222 
TABS,ioos:station:TABS:X:1,2016-08-07T10:00:00Z,27.0660,-96.3383,1013.22,11111222 
TABS,ioos:station:TABS:X:1,2016-08-07T10:30:00Z,27.0660,-96.3383,1013.01,11111222 
TABS,ioos:station:TABS:X:1,2016-08-07T11:00:00Z,27.0660,-96.3383,1013.18,11111222 
TABS,ioos:station:TABS:X:1,2016-08-07T11:30:00Z,27.0660,-96.3383,1013.41,11111222 
TABS,ioos:station:TABS:X:1,2016-08-07T12:00:00Z,27.0660,-96.3383,1013.34,11111222 
TABS,ioos:station:TABS:X:1,2016-08-07T12:30:00Z,27.0660,-96.3383,1013.46,11111222 
TABS,ioos:station:TABS:X:1,2016-08-07T13:00:00Z,27.0660,-96.3383,1013.77,11111222 
TABS,ioos:station:TABS:X:1,2016-08-07T13:30:00Z,27.0660,-96.3383,1013.9,11111222 
TABS,ioos:station:TABS:X:1,2016-08-07T14:00:00Z,27.0660,-96.3383,1014.2,11111222 
TABS,ioos:station:TABS:X:1,2016-08-07T14:30:00Z,27.0660,-96.3383,1014.54,11111222 
TABS,ioos:station:TABS:X:1,2016-08-07T15:00:00Z,27.0660,-96.3383,1014.64,11111222 
TABS,ioos:station:TABS:X:1,2016-08-07T15:30:00Z,27.0660,-96.3383,1014.75,11111222 
TABS,ioos:station:TABS:X:1,2016-08-07T16:00:00Z,27.0660,-96.3383,1014.72,11111222 
TABS,ioos:station:TABS:X:1,2016-08-07T16:30:00Z,27.0660,-96.3383,1014.67,11111222 
TABS,ioos:station:TABS:X:1,2016-08-07T17:00:00Z,27.0660,-96.3383,1014.53,11111222 
TABS,ioos:station:TABS:X:1,2016-08-07T17:30:00Z,27.0660,-96.3383,1014.58,11111222 
TABS,ioos:station:TABS:X:1,2016-08-07T18:00:00Z,27.0660,-96.3383,1014.41,11111222 
TABS,ioos:station:TABS:X:1,2016-08-07T18:30:00Z,27.0660,-96.3383,1014.18,11111222 
TABS,ioos:station:TABS:X:1,2016-08-07T19:00:00Z,27.0660,-96.3383,1013.95,11111222 
TABS,ioos:station:TABS:X:1,2016-08-07T19:30:00Z,27.0660,-96.3383,1013.67,11111222 
TABS,ioos:station:TABS:X:1,2016-08-07T20:00:00Z,27.0660,-96.3383,1013.3,11111222 
TABS,ioos:station:TABS:X:1,2016-08-07T20:30:00Z,27.0660,-96.3383,1012.9,11111222 
TABS,ioos:station:TABS:X:1,2016-08-07T21:00:00Z,27.0660,-96.3383,1012.76,11111222 
TABS,ioos:station:TABS:X:1,2016-08-07T21:30:00Z,27.0660,-96.3383,1012.42,11111222 
TABS,ioos:station:TABS:X:1,2016-08-07T22:00:00Z,27.0660,-96.3383,1012.01,11111222 
TABS,ioos:station:TABS:X:1,2016-08-07T22:30:00Z,27.0660,-96.3383,1011.83,11111222 
TABS,ioos:station:TABS:X:1,2016-08-07T23:00:00Z,27.0660,-96.3383,1011.56,11111222 
TABS,ioos:station:TABS:X:1,2016-08-07T23:30:00Z,27.0660,-96.3383,1011.49,11111222 
TABS,ioos:station:TABS:X:1,2016-08-08T00:00:00Z,27.0660,-96.3383,1011.56,11111222 
TABS,ioos:station:TABS:X:1,2016-08-08T00:30:00Z,27.0660,-96.3383,1011.72,11111222 
TABS,ioos:station:TABS:X:1,2016-08-08T01:00:00Z,27.0660,-96.3383,1011.66,11111222 
TABS,ioos:station:TABS:X:1,2016-08-08T01:30:00Z,27.0660,-96.3383,1011.77,11111222 
TABS,ioos:station:TABS:X:1,2016-08-08T02:00:00Z,27.0660,-96.3383,1012.12,11111222 
TABS,ioos:station:TABS:X:1,2016-08-08T02:30:00Z,27.0660,-96.3383,1012.31,11111222 
TABS,ioos:station:TABS:X:1,2016-08-08T03:00:00Z,27.0660,-96.3383,1012.33,11111222 
TABS,ioos:station:TABS:X:1,2016-08-08T03:30:00Z,27.0660,-96.3383,1012.4,11111222 
TABS,ioos:station:TABS:X:1,2016-08-08T04:00:00Z,27.0660,-96.3383,1012.54,11111222 
TABS,ioos:station:TABS:X:1,2016-08-08T04:30:00Z,27.0660,-96.3383,1012.67,11111222 
TABS,ioos:station:TABS:X:1,2016-08-08T05:00:00Z,27.0660,-96.3383,1012.6,11111222 
TABS,ioos:station:TABS:X:1,2016-08-08T05:30:00Z,27.0660,-96.3383,1012.7,11111222 
TABS,ioos:station:TABS:X:1,2016-08-08T06:00:00Z,27.0660,-96.3383,1012.73,11111222 
TABS,ioos:station:TABS:X:1,2016-08-08T06:30:00Z,27.0660,-96.3383,1012.49,11111222 
TABS,ioos:station:TABS:X:1,2016-08-08T07:00:00Z,27.0660,-96.3383,1012.61,11111222 
TABS,ioos:station:TABS:X:1,2016-08-08T07:30:00Z,27.0660,-96.3383,1012.13,11111222 
TABS,ioos:station:TABS:X:1,2016-08-08T08:00:00Z,27.0660,-96.3383,1012.11,11111222 
TABS,ioos:station:TABS:X:1,2016-08-08T08:30:00Z,27.0660,-96.3383,1012.19,11111222 
TABS,ioos:station:TABS:X:1,2016-08-08T09:00:00Z,27.0660,-96.3383,1012.05,11111222 
TABS,ioos:station:TABS:X:1,2016-08-08T09:30:00Z,27.0660,-96.3383,1011.86,11111222 
TABS,ioos:station:TABS:X:1,2016-08-08T10:00:00Z,27.0660,-96.3383,1011.98,11111222 
TABS,ioos:station:TABS:X:1,2016-08-08T10:30:00Z,27.0660,-96.3383,1011.61,11111222 
TABS,ioos:station:TABS:X:1,2016-08-08T11:00:00Z,27.0660,-96.3383,1011.67,11111222 
TABS,ioos:station:TABS:X:1,2016-08-08T11:30:00Z,27.0660,-96.3383,1011.83,11111222 
TABS,ioos:station:TABS:X:1,2016-08-08T12:00:00Z,27.0660,-96.3383,1012.11,11111222 
TABS,ioos:station:TABS:X:1,2016-08-08T12:30:00Z,27.0660,-96.3383,1012.18,11111222 
TABS,ioos:station:TABS:X:1,2016-08-08T13:00:00Z,27.0660,-96.3383,1012.56,11111222 
TABS,ioos:station:TABS:X:1,2016-08-08T13:30:00Z,27.0660,-96.3383,1012.52,11111222 
TABS,ioos:station:TABS:X:1,2016-08-08T14:00:00Z,27.0660,-96.3383,1012.64,11111222 
TABS,ioos:station:TABS:X:1,2016-08-08T14:30:00Z,27.0660,-96.3383,1012.51,11111222 
TABS,ioos:station:TABS:X:1,2016-08-08T15:00:00Z,27.0660,-96.3383,1012.89,11111222 
TABS,ioos:station:TABS:X:1,2016-08-08T15:30:00Z,27.0660,-96.3383,1012.94,11111222 
TABS,ioos:station:TABS:X:1,2016-08-08T16:00:00Z,27.0660,-96.3383,1013.03,11111222 
TABS,ioos:station:TABS:X:1,2016-08-08T16:30:00Z,27.0660,-96.3383,1013.26,11111222 
TABS,ioos:station:TABS:X:1,2016-08-08T17:00:00Z,27.0660,-96.3383,1013.2,11111222 
TABS,ioos:station:TABS:X:1,2016-08-08T17:30:00Z,27.0660,-96.3383,1012.96,11111222 
TABS,ioos:station:TABS:X:1,2016-08-08T18:00:00Z,27.0660,-96.3383,1012.59,11111222 
TABS,ioos:station:TABS:X:1,2016-08-08T18:30:00Z,27.0660,-96.3383,1012.52,11111222 
TABS,ioos:station:TABS:X:1,2016-08-08T19:00:00Z,27.0660,-96.3383,1012.46,11111222 
TABS,ioos:station:TABS:X:1,2016-08-08T19:30:00Z,27.0660,-96.3383,1012.27,11111222 
TABS,ioos:station:TABS:X:1,2016-08-08T20:00:00Z,27.0660,-96.3383,1011.81,11111222 
TABS,ioos:station:TABS:X:1,2016-08-08T20:30:00Z,27.0660,-96.3383,1011.44,11111222 
TABS,ioos:station:TABS:X:1,2016-08-08T21:00:00Z,27.0660,-96.3383,1011.27,11111222 
TABS,ioos:station:TABS:X:1,2016-08-08T21:30:00Z,27.0660,-96.3383,1010.97,11111222 
TABS,ioos:station:TABS:X:1,2016-08-08T22:00:00Z,27.0660,-96.3383,1010.91,11111222 
TABS,ioos:station:TABS:X:1,2016-08-08T22:30:00Z,27.0660,-96.3383,1010.7,11111222 
TABS,ioos:station:TABS:X:1,2016-08-08T23:00:00Z,27.0660,-96.3383,1010.55,11111222 
TABS,ioos:station:TABS:X:1,2016-08-08T23:30:00Z,27.0660,-96.3383,1010.41,11111222 
TABS,ioos:station:TABS:X:1,2016-08-09T00:00:00Z,27.0660,-96.3383,1010.38,11111222 
TABS,ioos:station:TABS:X:1,2016-08-09T00:30:00Z,27.0660,-96.3383,1010.42,11111222 
TABS,ioos:station:TABS:X:1,2016-08-09T01:00:00Z,27.0660,-96.3383,1010.43,11111222 
TABS,ioos:station:TABS:X:1,2016-08-09T01:30:00Z,27.0660,-96.3383,1010.64,11111222 
TABS,ioos:station:TABS:X:1,2016-08-09T02:00:00Z,27.0660,-96.3383,1010.91,11111222 
TABS,ioos:station:TABS:X:1,2016-08-09T02:30:00Z,27.0660,-96.3383,1011.29,11111222 